This demonstration page uses our WeatherBlox Daily Observations layout. Learn more.

Left ArrowRight Arrow

Hourly Observations for August 6, 2021

Temp ( °F °C ) Dew Point ( °F °C ) Humidity (%) Winds ( mph kmh ) Pressure ( in mb ) Visibility ( mi km ) Precip ( " mm )
12:15 am 00:15 Clear 60 15.7 59 15 96 96 Calm 30.10 1019 10 16 0.00 0.00
12:35 am 00:35 Clear 60 15.6 59 15 96 96 Calm 30.10 1019 10 16 0.00 0.00
12:55 am 00:55 Partly Cloudy 60 15.6 59 15 96 96 Calm 30.10 1019 10 16 0.00 0.00
1:15 am 01:15 Partly Cloudy 60 15.3 58 14.6 96 96 Calm 30.09 1019 10 16 0.00 0.00
1:35 am 01:35 Clear 59 15.2 58 14.6 96 96 Calm 30.09 1019 10 16 0.00 0.00
1:55 am 01:55 Clear 59 14.9 58 14.2 96 96 Calm 30.08 1019 10 16 0.00 0.00
2:15 am 02:15 Clear 58 14.6 57 14.1 97 97 Calm 30.08 1019 10 16 0.00 0.00
2:35 am 02:35 Clear 58 14.3 57 13.7 96 96 Calm 30.09 1019 10 16 0.00 0.00
2:55 am 02:55 Clear 57 14.1 56 13.6 97 97 Calm 30.09 1019 10 16 0.00 0.00
3:15 am 03:15 Clear 58 14.5 57 13.8 96 96 Calm 30.09 1019 10 16 0.00 0.00
3:35 am 03:35 Clear 57 14 56 13.5 97 97 Calm 30.09 1019 10 16 0.00 0.00
3:55 am 03:55 Clear 57 13.9 56 13.5 97 97 Calm 30.09 1019 10 16 0.00 0.00
4:15 am 04:15 Clear 57 14 56 13.5 97 97 Calm 30.09 1019 10 16 0.00 0.00
4:35 am 04:35 Clear 57 13.8 56 13.3 97 97 Calm 30.10 1019 10 16 0.00 0.00
4:55 am 04:55 Clear 58 14.4 57 14 97 97 Calm 30.09 1019 7 11 0.00 0.00
5:15 am 05:15 Clear 57 14.1 57 13.7 97 97 Calm 30.09 1019 7 11 0.00 0.00
5:35 am 05:35 Clear 56 13.3 55 12.9 97 97 Calm 30.09 1019 7 11 0.00 0.00
5:55 am 05:55 Clear 55 12.7 54 12.2 97 97 Calm 30.09 1019 7 11 0.00 0.00
6:15 am 06:15 Clear with Mist and Fog 55 12.5 54 12 97 97 Calm 30.10 1019 5 8 0.00 0.00
6:35 am 06:35 Clear with Mist and Fog 55 12.9 55 12.5 97 97 Calm 30.10 1019 5 8 0.00 0.00
6:55 am 06:55 Sunny 56 13.2 55 12.9 98 98 Calm 30.10 1019 7 11 0.00 0.00
7:15 am 07:15 Sunny 57 14 56 13.5 97 97 Calm 30.11 1020 7 11 0.00 0.00
7:35 am 07:35 Sunny 58 14.7 58 14.2 97 97 Calm 30.10 1019 10 16 0.00 0.00
7:55 am 07:55 Sunny 60 15.6 59 15 96 96 Calm 30.10 1019 10 16 0.00 0.00
8:15 am 08:15 Sunny 64 17.6 62 16.4 93 93 Calm 30.10 1019 10 16 0.00 0.00
8:35 am 08:35 Sunny 66 19 61 16.2 84 84 S 3 6 30.10 1019 10 16 0.00 0.00
8:55 am 08:55 Sunny 67 19.7 62 16.4 81 81 S 5 7 30.10 1019 10 16 0.00 0.00
9:15 am 09:15 Sunny 69 20.5 61 16.2 76 76 SSW 5 7 30.09 1019 10 16 0.00 0.00
9:35 am 09:35 Sunny 71 21.7 61 16.1 71 71 SW 5 7 30.10 1019 10 16 0.00 0.00
9:55 am 09:55 Sunny 72 22.3 61 16 68 68 SSW 7 11 30.11 1020 10 16 0.00 0.00
10:15 am 10:15 Sunny 73 22.8 61 15.9 65 65 SSW 7 11 30.10 1019 10 16 0.00 0.00
10:35 am 10:35 Sunny 74 23.1 61 16 64 64 SW 7 11 30.10 1019 10 16 0.00 0.00
10:55 am 10:55 Sunny 75 23.7 61 16.2 63 63 SW 10 17 30.10 1019 10 16 0.00 0.00
11:15 am 11:15 Sunny 76 24.6 62 16.4 60 60 SW 12 19 30.09 1019 10 16 0.00 0.00
11:35 am 11:35 Mostly Cloudy 76 24.6 61 16.2 60 60 SW 10 17 30.10 1019 10 16 0.00 0.00
11:55 am 11:55 Partly Cloudy 78 25.8 63 17 58 58 SW 12 19 30.09 1019 10 16 0.00 0.00
12:15 pm 12:15 Sunny 79 25.9 63 17 58 58 SW 12 19 30.08 1019 10 16 0.00 0.00
12:35 pm 12:35 Sunny 79 26.3 62 16.5 55 55 SW 13 20 30.08 1018 10 16 0.00 0.00
12:55 pm 12:55 Sunny 80 26.7 62 16.9 55 55 SW 9 15 30.06 1018 10 16 0.00 0.00
1:15 pm 13:15 Sunny 80 26.6 62 16.5 54 54 SSW 12 19 30.06 1018 10 16 0.00 0.00
1:35 pm 13:35 Sunny 80 26.6 62 16.8 55 55 WSW 10 17 30.06 1018 10 16 0.00 0.00
1:55 pm 13:55 Sunny 80 26.9 63 17.1 55 55 SW 9 15 30.05 1018 10 16 0.00 0.00
2:15 pm 14:15 Partly Cloudy 81 27.4 64 17.8 56 56 SSW 10 17 30.05 1018 10 16 0.00 0.00
2:35 pm 14:35 Sunny 81 27.2 64 17.8 57 57 SSW 12 19 30.04 1017 10 16 0.00 0.00
2:55 pm 14:55 Sunny 81 27.1 65 18.2 58 58 SSW 7 11 30.04 1017 10 16 0.00 0.00
3:15 pm 15:15 Sunny 82 27.7 65 18.3 57 57 SW 9 15 30.03 1017 10 16 0.00 0.00
3:35 pm 15:35 Sunny 82 27.7 65 18.3 57 57 SW 8 13 30.03 1017 10 16 0.00 0.00
3:55 pm 15:55 Sunny 82 27.9 65 18.2 56 56 SW 9 15 30.02 1017 10 16 0.00 0.00
4:15 pm 16:15 Partly Cloudy 82 27.6 65 18.1 56 56 S 8 13 30.02 1017 10 16 0.00 0.00
4:35 pm 16:35 Partly Cloudy 82 27.7 65 18.3 57 57 SSW 9 15 30.01 1016 10 16 0.00 0.00
4:55 pm 16:55 Sunny 82 27.5 65 18.5 58 58 S 9 15 30.00 1016 10 16 0.00 0.00
5:15 pm 17:15 Sunny 82 27.5 65 18.2 57 57 S 9 15 30.00 1016 10 16 0.00 0.00
5:35 pm 17:35 Sunny 82 27.5 65 18.1 57 57 SSW 12 19 30.00 1016 10 16 0.00 0.00
5:55 pm 17:55 Sunny 82 27.7 65 18.6 58 58 SW 9 15 30.01 1016 10 16 0.00 0.00
6:15 pm 18:15 Sunny 81 27.3 65 18.6 59 59 SW 9 15 30.00 1016 10 16 0.00 0.00
6:35 pm 18:35 Sunny 81 27 65 18.5 60 60 SW 7 11 29.99 1016 10 16 0.00 0.00
6:55 pm 18:55 Sunny 80 26.4 65 18.5 62 62 SW 8 13 30.00 1016 10 16 0.00 0.00
7:15 pm 19:15 Sunny 79 26.1 65 18.4 63 63 SW 7 11 30.00 1016 10 16 0.00 0.00
7:35 pm 19:35 Sunny 77 25.1 65 18.6 67 67 SSW 6 9 30.00 1016 10 16 0.00 0.00
7:55 pm 19:55 Sunny 77 25 65 18.5 67 67 SSW 7 11 30.00 1016 10 16 0.00 0.00
8:15 pm 20:15 Sunny 76 24.3 65 18.5 70 70 SSW 6 9 30.00 1016 10 16 0.00 0.00
8:35 pm 20:35 Partly Cloudy 74 23.6 65 18.5 73 73 SSW 5 7 30.01 1016 10 16 0.00 0.00
8:55 pm 20:55 Partly Cloudy 74 23.4 65 18.6 75 75 S 3 6 30.02 1016 10 16 0.00 0.00
9:15 pm 21:15 Clear 73 22.7 66 18.7 78 78 SSW 5 7 30.02 1017 10 16 0.00 0.00
9:35 pm 21:35 Clear 72 22.2 65 18.5 80 80 SSW 3 6 30.02 1017 10 16 0.00 0.00
9:55 pm 21:55 Clear 71 21.6 65 18.5 83 83 S 5 7 30.03 1017 10 16 0.00 0.00
10:15 pm 22:15 Clear 71 21.5 65 18.5 83 83 S 5 7 30.04 1017 10 16 0.00 0.00
10:35 pm 22:35 Mostly Cloudy 71 21.6 65 18.4 82 82 S 3 6 30.04 1017 10 16 0.00 0.00
10:55 pm 22:55 Mostly Cloudy 71 21.4 65 18.5 84 84 SSW 3 6 30.05 1018 10 16 0.00 0.00
11:15 pm 23:15 Partly Cloudy 71 21.9 65 18.3 80 80 S 5 7 30.05 1018 10 16 0.00 0.00
11:35 pm 23:35 Mostly Cloudy 71 21.5 65 18.2 82 82 S 5 7 30.05 1018 10 16 0.00 0.00
11:55 pm 23:55 Cloudy 71 21.8 65 18.2 80 80 S 5 7 30.05 1018 10 16 0.00 0.00

Powered by AerisWeather